RH
64 61 59 51 53 47 40 34 30 29 36 33 24 17 16 16 13 12 12 14 13 9 14 24 30 23 23 20 16 14 12 13 18
67 66 60 57 54 62 62 43 33 29 30 33 31 26 18 17 16 13 12 13 11 8 9 20 29 24 21 21 17 14 12 11 13
68 71 68 65 62 64 65 62 56 45 39 32 32 28 21 19 18 16 15 13 14 9 8 14 22 25 22 21 23 20 18 20 19
73 73 70 68 66 70 72 72 71 69 62 48 37 34 29 25 21 18 15 16 18 15 9 10 17 20 22 21 21 26 22 23 21
72 71 68 69 66 68 73 75 69 69 70 68 55 45 38 31 27 20 18 17 19 18 15 16 19 21 18 19 20 22 25 24 26
76 75 73 72 69 64 66 70 72 67 64 66 67 63 51 41 35 28 21 18 16 21 17 20 23 24 23 17 18 18 21 24 23
75 70 72 71 69 68 62 64 67 66 64 64 67 68 66 55 48 39 29 21 15 19 20 19 21 25 25 23 18 17 17 20 22
74 71 69 68 66 65 63 60 62 65 59 56 63 69 69 66 60 53 41 33 21 19 22 21 21 21 24 23 19 17 16 16 18
64 65 65 62 61 62 61 61 59 55 49 44 50 62 67 65 68 67 57 49 37 26 24 25 24 23 23 23 21 18 16 14 16
49 51 50 49 48 46 46 45 43 39 36 30 38 51 56 64 67 68 70 62 54 41 28 28 29 26 24 25 20 20 17 15 13
26 26 28 28 29 29 30 32 31 29 29 27 29 36 50 56 62 65 66 68 66 60 49 37 32 35 28 22 23 20 19 16 14
8 7 6 8 12 15 17 20 24 27 28 26 28 29 34 43 54 58 60 64 66 66 61 55 45 40 35 26 22 22 17 18 16
2 2 2 2 3 7 11 15 18 20 24 26 27 29 31 34 34 41 47 54 57 63 61 63 58 54 48 38 29 22 22 19 16
3 3 3 3 3 3 4 7 11 15 18 19 23 28 30 31 34 33 34 35 39 54 56 61 65 58 56 44 39 27 20 24 19
4 4 4 4 4 5 4 4 5 6 11 15 17 19 25 28 29 29 30 33 29 30 40 53 62 68 63 53 45 38 23 26 25
5 5 6 6 6 6 6 6 6 6 6 6 9 15 19 20 27 27 29 32 28 30 30 38 48 63 67 65 56 47 29 29 28
7 7 7 8 8 8 9 8 8 8 7 7 7 6 8 13 18 24 27 26 28 30 36 32 36 44 53 61 62 56 48 35 34
8 8 9 9 10 10 10 10 10 10 9 9 9 9 14 14 16 20 24 27 27 31 32 29 34 36 37 48 58 59 55 48 39
9 10 10 11 11 11 11 11 11 11 11 11 11 10 9 10 15 21 24 28 30 30 34 39 37 33 32 41 48 51 57 57 47
11 11 11 12 12 13 13 13 13 13 13 13 12 12 11 10 10 9 16 25 27 30 29 29 31 38 35 34 35 48 48 59 58